timestamp,surface_pressure_avg,surface_temp_avg,battery_voltage,lat,long
2020-05-08 00:09:01+00:00,406.9945,2.7,12.89,47.84626,-54.09684
2020-05-08 00:19:01+00:00,404.3947,2.7,12.73,47.84626,-54.09684
2020-05-08 00:29:01+00:00,388.5229,2.81,12.73,47.84626,-54.09684
2020-05-08 00:39:01+00:00,376.5613,3.15,12.73,47.84626,-54.09684
2020-05-08 00:49:01+00:00,378.9579,3.78,12.73,47.84626,-54.09684
2020-05-08 00:59:01+00:00,384.8246,3.6,12.73,47.84626,-54.09684
2020-05-08 01:09:01+00:00,386.3246,3.6,12.73,47.84626,-54.09684
2020-05-08 01:19:01+00:00,387.0429,3.5,12.65,47.84626,-54.09684
2020-05-08 01:29:01+00:00,390.0878,3.8,12.65,47.84626,-54.09684
2020-05-08 01:39:01+00:00,381.2645,3.39,12.65,47.84626,-54.09684
2020-05-08 01:49:01+00:00,371.8962,2.89,12.65,47.84626,-54.09684
2020-05-08 01:59:01+00:00,369.8796,3.29,12.65,47.84626,-54.09684
2020-05-08 02:09:01+00:00,362.7179,3.66,12.65,47.84626,-54.09684
2020-05-08 02:19:01+00:00,344.108,3.98,12.65,47.84626,-54.09684
2020-05-08 02:29:01+00:00,331.1497,4.27,12.65,47.84626,-54.09684
2020-05-08 02:39:01+00:00,327.1447,4.3,12.65,47.84626,-54.09684
2020-05-08 02:49:01+00:00,315.0446,4.0,12.65,47.84626,-54.09684
2020-05-08 02:59:01+00:00,303.7913,3.96,12.65,47.84626,-54.09684
2020-05-08 03:09:01+00:00,299.6196,4.0,12.65,47.84626,-54.09684
2020-05-08 03:19:01+00:00,284.8231,4.0,12.65,47.84626,-54.09684
2020-05-08 03:29:01+00:00,266.4914,3.96,12.65,47.84626,-54.09684
2020-05-08 03:39:01+00:00,260.6147,3.9,12.65,47.84626,-54.09684
2020-05-08 03:49:01+00:00,253.6664,3.88,12.65,47.84626,-54.09684
2020-05-08 03:59:01+00:00,233.1097,3.83,12.65,47.84626,-54.09684
2020-05-08 04:09:01+00:00,225.9981,3.86,12.65,47.84626,-54.09684
2020-05-08 04:19:01+00:00,227.3081,3.83,12.65,47.84626,-54.09684
2020-05-08 04:29:01+00:00,220.5481,3.86,12.65,47.84626,-54.09684
2020-05-08 04:39:01+00:00,212.3315,3.89,12.65,47.84626,-54.09684
2020-05-08 04:49:01+00:00,212.9631,3.9,12.65,47.84626,-54.09684
2020-05-08 04:59:01+00:00,205.2564,3.9,12.65,47.84626,-54.09684
2020-05-08 05:09:01+00:00,192.1131,3.92,12.65,47.84626,-54.09684
2020-05-08 05:19:01+00:00,190.9881,3.96,12.65,47.84626,-54.09684
2020-05-08 05:29:01+00:00,195.6382,3.93,12.65,47.84626,-54.09684
2020-05-08 05:39:01+00:00,193.1631,3.9,12.65,47.84626,-54.09684
2020-05-08 05:49:01+00:00,187.6115,3.9,12.65,47.84626,-54.09684
2020-05-08 05:59:01+00:00,181.1831,3.9,12.65,47.84626,-54.09684
2020-05-08 06:09:01+00:00,179.2665,3.9,12.65,47.84626,-54.09684
2020-05-08 06:19:01+00:00,182.3265,3.9,12.65,47.84626,-54.09684
2020-05-08 06:29:01+00:00,183.3881,3.9,12.65,47.84626,-54.09684
2020-05-08 06:39:01+00:00,183.2131,3.9,12.65,47.84626,-54.09684
2020-05-08 06:49:01+00:00,189.5598,3.9,12.65,47.84626,-54.09684
2020-05-08 06:59:01+00:00,198.5847,3.77,12.65,47.84626,-54.09684
2020-05-08 07:09:01+00:00,192.8998,3.8,12.65,47.84626,-54.09684
2020-05-08 07:19:01+00:00,190.7865,3.7,12.65,47.84626,-54.09684
2020-05-08 07:29:01+00:00,206.1848,3.1,12.65,47.84626,-54.09684
2020-05-08 07:39:01+00:00,211.4015,2.9,12.65,47.84626,-54.09684
2020-05-08 07:49:01+00:00,208.1431,2.92,12.65,47.84626,-54.09684
2020-05-08 07:59:01+00:00,215.7131,3.0,12.65,47.84626,-54.09684
2020-05-08 08:09:01+00:00,227.9897,2.8,12.65,47.84626,-54.09684
2020-05-08 08:19:01+00:00,231.2764,2.75,12.65,47.84626,-54.09684
2020-05-08 08:29:01+00:00,230.1514,2.79,12.65,47.84626,-54.09684
2020-05-08 08:39:01+00:00,240.1097,2.7,12.65,47.84626,-54.09684
2020-05-08 08:49:01+00:00,245.4431,2.7,12.65,47.84626,-54.09684
2020-05-08 08:59:01+00:00,245.7581,2.7,12.65,47.84626,-54.09684
2020-05-08 09:09:01+00:00,256.9547,2.69,12.65,47.84626,-54.09684
2020-05-08 09:19:01+00:00,270.1832,2.6,12.57,47.84626,-54.09684
2020-05-08 09:29:01+00:00,270.8448,2.6,12.57,47.84626,-54.09684
2020-05-08 09:39:01+00:00,271.3914,2.6,12.57,47.84626,-54.09684
2020-05-08 09:49:01+00:00,282.7781,2.6,12.57,47.84626,-54.09684
2020-05-08 09:59:01+00:00,294.9747,2.54,12.57,47.84626,-54.09684
2020-05-08 10:09:01+00:00,299.1113,2.5,12.57,47.84626,-54.09684
2020-05-08 10:19:01+00:00,307.6929,2.5,12.65,47.84626,-54.09684
2020-05-08 10:29:01+00:00,321.1364,2.49,12.65,47.84626,-54.09684
2020-05-08 10:39:01+00:00,327.68300000000005,2.4,12.65,47.84626,-54.09684
2020-05-08 10:49:01+00:00,336.7479,2.4,12.65,47.84626,-54.09684
2020-05-08 10:59:01+00:00,344.1613,2.4,12.65,47.84626,-54.09684
2020-05-08 11:09:01+00:00,348.8113,2.4,12.65,47.84626,-54.09684
2020-05-08 11:19:01+00:00,351.8347,2.4,12.73,47.84626,-54.09684
2020-05-08 11:29:01+00:00,356.8646,2.4,12.73,47.84626,-54.09684
2020-05-08 11:39:01+00:00,362.0196,2.4,12.73,47.84626,-54.09684
2020-05-08 11:49:01+00:00,365.0428,2.4,12.73,47.84626,-54.09684
2020-05-08 11:59:01+00:00,369.3863,2.4,12.73,47.84626,-54.09684
2020-05-08 12:09:01+00:00,372.6562,2.43,12.73,47.84626,-54.09684
2020-05-08 12:19:01+00:00,370.6863,2.43,13.13,47.84626,-54.09684
2020-05-08 12:29:01+00:00,371.1096,2.4,13.13,47.84626,-54.09684
2020-05-08 12:39:01+00:00,375.9778,2.4,13.13,47.84626,-54.09684
2020-05-08 12:49:01+00:00,374.6146,2.4,13.13,47.84626,-54.09684
2020-05-08 12:59:01+00:00,371.3962,2.4,13.13,47.84626,-54.09684
2020-05-08 13:09:01+00:00,371.2513,2.4,13.13,47.84626,-54.09684
2020-05-08 13:19:01+00:00,370.883,2.4,13.37,47.84626,-54.09684
2020-05-08 13:29:01+00:00,362.6912,2.49,13.37,47.84626,-54.09684
2020-05-08 13:39:01+00:00,356.8829,2.5,13.37,47.84626,-54.09684
2020-05-08 13:49:01+00:00,359.2695,2.5,13.37,47.84626,-54.09684
2020-05-08 13:59:01+00:00,357.1797,2.5,13.37,47.84626,-54.09684
2020-05-08 14:09:01+00:00,349.4014,2.59,13.37,47.84626,-54.09684
2020-05-08 14:19:01+00:00,343.0630000000001,2.86,13.6,47.84626,-54.09684
2020-05-08 14:29:01+00:00,338.0563,3.11,13.6,47.84626,-54.09684
2020-05-08 14:39:01+00:00,333.588,3.22,13.6,47.84626,-54.09684
2020-05-08 14:49:01+00:00,321.3947,3.3,13.6,47.84626,-54.09684
2020-05-08 14:59:01+00:00,307.428,3.35,13.6,47.84626,-54.09684
2020-05-08 15:09:01+00:00,301.2264,3.3,13.6,47.84626,-54.09684
2020-05-08 15:19:01+00:00,288.5064,3.39,13.68,47.84626,-54.09684
2020-05-08 15:29:01+00:00,272.5731,3.4,13.68,47.84626,-54.09684
2020-05-08 15:39:01+00:00,259.6431,3.05,13.68,47.84626,-54.09684
2020-05-08 15:49:01+00:00,250.4147,3.26,13.68,47.84626,-54.09684
2020-05-08 15:59:01+00:00,234.2148,3.68,13.68,47.84626,-54.09684
2020-05-08 16:09:01+00:00,214.538,3.8,13.68,47.84626,-54.09684
2020-05-08 16:19:01+00:00,203.7748,3.77,14.16,47.84626,-54.09684
2020-05-08 16:29:01+00:00,194.5364,3.95,14.16,47.84626,-54.09684
2020-05-08 16:39:01+00:00,179.0215,4.1,14.16,47.84626,-54.09684
2020-05-08 16:49:01+00:00,169.4598,4.1,14.16,47.84626,-54.09684
2020-05-08 16:59:01+00:00,165.1948,4.22,14.16,47.84626,-54.09684
2020-05-08 17:09:01+00:00,160.3199,4.3,14.16,47.84626,-54.09684
2020-05-08 17:19:01+00:00,155.4848,4.3,14.24,47.84626,-54.09684
2020-05-08 17:29:01+00:00,157.3615,4.29,14.24,47.84626,-54.09684
2020-05-08 17:39:01+00:00,158.0848,4.3,14.24,47.84626,-54.09684
2020-05-08 17:49:01+00:00,153.5798,4.38,14.24,47.84626,-54.09684
2020-05-08 17:59:01+00:00,157.9248,4.5,14.24,47.84626,-54.09684
2020-05-08 18:09:01+00:00,164.9931,4.5,14.24,47.84626,-54.09684
2020-05-08 18:19:01+00:00,163.6065,4.5,14.0,47.84626,-54.09684
2020-05-08 18:29:01+00:00,162.6982,4.5,14.0,47.84626,-54.09684
2020-05-08 18:39:01+00:00,169.9681,4.57,14.0,47.84626,-54.09684
2020-05-08 18:49:01+00:00,175.9615,3.95,14.0,47.84626,-54.09684
2020-05-08 18:59:01+00:00,175.9298,3.8,14.0,47.84626,-54.09684
2020-05-08 19:09:01+00:00,179.3865,3.7,14.0,47.84626,-54.09684
2020-05-08 19:19:01+00:00,188.0848,3.7,14.0,47.84626,-54.09684
2020-05-08 19:29:01+00:00,192.6148,3.79,14.0,47.84626,-54.09684
2020-05-08 19:39:01+00:00,191.1698,3.89,14.0,47.84626,-54.09684
2020-05-08 19:49:01+00:00,193.2331,3.9,14.0,47.84626,-54.09684
2020-05-08 19:59:01+00:00,206.7298,3.8,14.0,47.84626,-54.09684
2020-05-08 20:09:01+00:00,212.9131,3.8,14.0,47.84626,-54.09684
2020-05-08 20:19:01+00:00,212.4247,3.8,14.0,47.84626,-54.09684
2020-05-08 20:29:01+00:00,220.9048,3.7,14.0,47.84626,-54.09684
2020-05-08 20:39:01+00:00,230.5648,3.6,14.0,47.84626,-54.09684
2020-05-08 20:49:01+00:00,234.1598,3.6,14.0,47.84626,-54.09684
2020-05-08 20:59:01+00:00,239.2481,3.5,14.0,47.84626,-54.09684
2020-05-08 21:09:01+00:00,248.0231,3.48,14.0,47.84626,-54.09684
2020-05-08 21:19:01+00:00,257.1264,3.47,13.92,47.84626,-54.09684
2020-05-08 21:29:01+00:00,263.943,3.5,13.92,47.84626,-54.09684
2020-05-08 21:39:01+00:00,274.5514,3.4,13.92,47.84626,-54.09684
2020-05-08 21:49:01+00:00,281.6813,3.3,13.92,47.84626,-54.09684
2020-05-08 21:59:01+00:00,286.5347,3.4,13.92,47.84626,-54.09684
2020-05-08 22:09:01+00:00,294.1213,3.3,13.92,47.84626,-54.09684
2020-05-08 22:19:01+00:00,303.1447,3.29,13.68,47.84626,-54.09684
2020-05-08 22:29:01+00:00,312.2663,3.4,13.68,47.84626,-54.09684
2020-05-08 22:39:01+00:00,318.3381,3.4,13.68,47.84626,-54.09684
2020-05-08 22:49:01+00:00,325.248,3.4,13.68,47.84626,-54.09684
2020-05-08 22:59:01+00:00,334.3029,3.41,13.68,47.84626,-54.09684
2020-05-08 23:09:01+00:00,346.8414,3.4,13.68,47.84626,-54.09684
2020-05-08 23:19:01+00:00,358.1546,3.4,13.29,47.84626,-54.09684
2020-05-08 23:29:01+00:00,371.9495,3.4,13.29,47.84626,-54.09684
2020-05-08 23:39:01+00:00,384.1696,3.45,13.29,47.84626,-54.09684
2020-05-08 23:49:01+00:00,388.4695,3.6,13.29,47.84626,-54.09684
2020-05-08 23:59:01+00:00,392.8846,3.6,13.29,47.84626,-54.09684
